Location: Moy Burn
(57.3833°N, 4.0667°W)
Time: 10:07:58
(UTC+00:00)

Cosmos 1602 - Pass Details

Date: 08 August 2020
Orbit: 513 x 535 km, 82.5° (Epoch: 18 September)

Event Time Altitude Azimuth Distance (km) Brightness Sun altitude
Exits shadow 22:06:24 13° 181° (S) 1,611 5.7 -11.6°
Maximum altitude 22:09:52 68° 100° (E) 581 3.7 -11.9°
Drops below altitude 10° 22:13:49 10° 17° (NNE) 1,805 7.1 -12.2°
Sets 22:15:59 0° 15° (NNE) 2,703 8.1 -12.3°
